[[{"header":{"parameterUnit":"m.s-1","parameterCategory":1,"la1":30.2991,"la2":30.254,"lo1":-89.0895,"lo2":-89.0444,"dy":0.0017,"dx":0.0017,"nx":28,"ny":28,"refTime":"2025-01-02T09:00:00:Z","depth":0,"parameterNumber":2,"parameterNumberName":"U-component_of_WINDS"},"data":[0,0,0,0,0,0,0,0,0,0,0,0,0,0,0,0,0,0,0,0,0,0,0,0,0,0,0,0,0,0,0,0,0,0,0,0,0,0,0,0,0,0,0,0,0,0,0,0,0,0,0,0,0,0,0,0,0,0,-4.0992,-4.0992,0,-4.1059,-4.106,-4.1061,-4.0959,-4.0955,-4.0951,-4.0948,-4.102,-4.1025,-4.103,0,0,0,0,0,0,0,0,0,0,0,0,0,-4.0776,-4.0781,-4.0992,-4.0992,-4.0993,-4.1059,-4.106,-4.1061,-4.0959,-4.0955,-4.0951,-4.0946,-4.1018,-4.1024,-4.1031,0,0,0,0,0,0,0,0,0,0,0,0,0,-4.086,-4.0782,-4.0991,-4.095,-4.0947,-4.1059,-4.106,-4.1061,-4.096,-4.0955,-4.0949,-4.0944,-4.1016,-4.1024,-4.1031,-4.1187,0,0,-4.1055,-4.1059,0,0,0,0,0,0,0,0,-4.0855,-4.0868,-4.0956,-4.0953,-4.095,-4.0995,-4.101,-4.1104,-4.0962,-4.0955,-4.0948,-4.0942,-4.1016,-4.1024,-4.1048,-4.119,-4.1194,-4.1056,-4.1061,-4.1064,-4.1067,0,0,0,0,0,0,0,-4.0849,-4.0864,-4.1018,-4.0957,-4.0954,-4.0929,-4.0935,-4.1028,-4.1015,-4.0956,-4.0948,-4.0958,-4.1014,-4.1041,-4.1049,-4.1195,-4.1056,-4.1063,-4.1068,-4.1071,-4.1469,-4.1474,0,0,0,0,0,0,-4.0848,-4.086,-4.1016,-4.102,-4.0888,-4.0938,-4.0944,-4.0986,-4.1014,-4.1013,-4.0962,-4.0953,-4.103,-4.104,-4.1051,-4.1236,-4.1064,-4.1072,-4.1076,-4.1463,-4.147,-4.1476,0,0,0,0,0,0,-4.0844,-4.0863,-4.1013,-4.0938,-4.0955,-4.0947,-4.0995,-4.099,-4.1017,-4.1019,-4.1016,-4.0992,-4.1026,-4.104,-4.1154,-4.1237,-4.1075,-4.1082,-4.1456,-4.1465,-4.1473,-4.1606,0,0,0,0,0,0,-4.0838,-4.0862,-4.0921,-4.094,-4.096,-4.1115,-4.1,-4.0995,-4.1031,-4.1019,-4.1046,-4.1045,-4.1023,-4.1143,-4.1162,-4.1245,-4.1088,-4.1449,-4.146,-4.147,-4.1594,-4.1618,-4.1639,0,0,0,0,0,-4.0831,-4.0956,-4.0924,-4.0944,-4.1033,-4.112,-4.1131,-4.1102,-4.1038,-4.1097,-4.1098,-4.1045,-4.1225,-4.1155,-4.1176,-4.1262,-4.1443,-4.1457,-4.147,-4.1584,-4.1614,-4.1639,0,0,0,0,0,0,-4.0947,-4.0958,-4.0923,-4.1058,-4.1089,-4.1102,-4.1176,-4.1134,-4.1185,-4.1172,-4.1134,-4.1141,-4.1263,-4.1274,-4.1197,-4.1415,-4.1323,-4.1341,-4.1404,-4.1431,-4.1453,-4.1449,-4.1095,0,0,0,0,0,-4.0988,-4.1057,-4.1063,-4.1182,-4.1199,-4.1185,-4.1222,-4.1197,-4.1228,-4.1241,-4.125,-4.1283,-4.1346,-4.1389,-4.1448,-4.1595,-4.16,-4.1665,-4.1687,-4.1705,-4.1722,-4.1801,-4.183,-4.152,-4.152,-4.1519,0,0,-4.1074,-4.1089,-4.1135,-4.1205,-4.1226,-4.13,-4.1197,-4.1279,-4.1333,-4.1253,-4.1361,-4.137,-4.1403,-4.1535,-4.1593,-4.1548,-4.1808,-4.1722,-4.1737,-4.1743,-4.1818,-4.1847,-4.1873,-4.1529,-4.1527,-4.1526,0,0,-4.1269,-4.1286,-4.1387,-4.141,-4.1443,-4.1433,-4.1457,-4.1478,-4.148,-4.1588,-4.153,-4.1594,-4.1705,-4.1731,-4.176,-4.1965,-4.1918,-4.1985,-4.2102,-4.218,-4.2204,-4.2226,-4.23,-4.2327,-4.2001,-4.2001,-4.2001,0,-4.1372,-4.1479,-4.1444,-4.153,-4.1564,-4.1494,-4.1596,-4.1621,-4.1672,-4.1697,-4.1644,-4.1782,-4.18,-4.1937,-4.1987,-4.2012,-4.204,-4.1982,-4.2203,-4.2225,-4.2244,-4.2315,-4.2342,-4.2009,-4.2008,-4.2008,-4.2007,0,-4.1604,-4.168,-4.1758,-4.1808,-4.185,-4.1944,-4.1924,-4.1971,-4.1942,-4.1938,-4.2049,-4.2068,-4.213,-4.2161,-4.2134,-4.2295,-4.2265,-4.2209,-4.2117,-4.2283,-4.2348,-4.2374,-4.2021,-4.2018,-4.2015,-4.2013,0,0,-4.1874,-4.1904,-4.1933,-4.1956,-4.1987,-4.2045,-4.2136,-4.2196,-4.2237,-4.2275,-4.2351,-4.2446,-4.2394,-4.2426,-4.2402,-4.247,-4.2633,-4.2405,-4.2406,-4.2448,-4.2812,-4.2855,-4.2887,-4.2601,-4.2606,-4.261,-4.281,0,-4.2068,-4.2225,-4.2197,-4.235,-4.2419,-4.2354,-4.2434,-4.2462,-4.2461,-4.2521,-4.2519,-4.2588,-4.2514,-4.2533,-4.2597,-4.2599,-4.2705,-4.2584,-4.2673,-4.2676,-4.2667,-4.2921,-4.2966,-4.3153,-4.2835,-4.2839,-4.2842,0,-4.2316,-4.2363,-4.2522,-4.2543,-4.2571,-4.2643,-4.2696,-4.2753,-4.2785,-4.2779,-4.2815,-4.2778,-4.287,-4.2775,-4.2901,-4.282,-4.2854,-4.2861,-4.2867,-4.2875,-4.277,-4.2936,-4.3212,-4.3241,-4.2882,-4.2879,-4.2876,0,-4.2498,-4.2601,-4.2709,-4.273,-4.2757,-4.2809,-4.2823,-4.2849,-4.2887,-4.2933,-4.2957,-4.3014,-4.3046,-4.3091,-4.307,-4.3003,-4.3201,-4.3105,-4.32,-4.3201,-4.3245,-4.3243,-4.3532,-4.3267,-4.3266,-4.3266,-4.3265,0,-4.2719,-4.2819,-4.2791,-4.2859,-4.297,-4.2936,-4.3047,-4.3053,-4.3077,-4.3145,-4.3092,-4.3157,-4.3125,-4.3189,-4.3173,-4.3281,-4.3295,-4.3294,-4.3289,-4.3299,-4.33,-4.3322,-4.3309,-4.3273,-4.3271,-4.327,-4.3269,0,-4.2941,-4.2926,-4.3041,-4.3057,-4.3063,-4.3144,-4.3158,-4.3221,-4.3216,-4.3302,-4.3321,-4.3313,-4.3384,-4.3368,-4.3447,-4.3436,-4.3572,-4.355,-4.3561,-4.3556,-4.3653,-4.3644,-4.3967,-4.4008,-4.3716,-4.3718,-4.3721,0,-4.3083,-4.3159,-4.3183,-4.3224,-4.3242,-4.3309,-4.3347,-4.3318,-4.336,-4.3401,-4.346,-4.3526,-4.3578,-4.3696,-4.3697,-4.3757,-4.3737,-4.3846,-4.3746,-4.3754,-4.374,-4.3736,-4.3744,-4.3866,-4.3869,-4.3872,-4.3874,0,-4.3337,-4.3326,-4.3383,-4.3438,-4.3485,-4.3527,-4.3564,-4.3601,-4.3575,-4.3625,-4.3697,-4.3737,-4.3817,-4.3884,-4.394,-4.3954,-4.3911,-4.3906,-4.3931,-4.3943,-4.3947,-4.3947,-4.3616,-4.3899,-4.3896,-4.3894,-4.3893,-4.3892,-4.3524,-4.3589,-4.3616,-4.3681,-4.3706,-4.3742,-4.3802,-4.3804,-4.3863,-4.3926,-4.3905,-4.3987,-4.4017,-4.4087,-4.4108,-4.4173,-4.4132,-4.4169,-4.4178,-4.4188,-4.42,-4.3936,-4.4183,-4.4182,-4.4182,-4.4181,-4.418,0,-4.3776,-4.379,-4.3851,-4.3904,-4.3956,-4.3909,-4.3948,-4.3995,-4.4068,-4.4099,-4.4151,-4.4234,-4.4299,-4.4306,-4.4367,-4.4418,-4.44,-4.4435,-4.4432,-4.4436,-4.4233,-4.4205,-4.4449,-4.4449,-4.4449,-4.4449,-4.4449,-4.4449,-4.3913,-4.402,-4.4013,-4.4132,-4.4145,-4.4225,-4.4252,-4.4285,-4.4309,-4.4405,-4.4458,-4.4462,-4.4484,-4.4546,-4.4604,-4.4604,-4.463,-4.4674,-4.4667,-4.4477,-4.445,-4.4425,-4.4398,-4.4679,-4.468,-4.4864,-4.4866,-4.4867]},{"header":{"parameterUnit":"m.s-1","parameterCategory":1,"la1":30.2991,"la2":30.254,"lo1":-89.0895,"lo2":-89.0444,"dy":0.0017,"dx":0.0017,"nx":28,"ny":28,"refTime":"2025-01-02T09:00:00:Z","depth":0,"parameterNumber":3,"parameterNumberName":"V-component_of_WINDS"},"data":[0,0,0,0,0,0,0,0,0,0,0,0,0,0,0,0,0,0,0,0,0,0,0,0,0,0,0,0,0,0,0,0,0,0,0,0,0,0,0,0,0,0,0,0,0,0,0,0,0,0,0,0,0,0,0,0,0,0,-2.5847,-2.5847,0,-2.583,-2.583,-2.583,-2.5793,-2.5793,-2.5792,-2.5791,-2.5774,-2.5774,-2.5774,0,0,0,0,0,0,0,0,0,0,0,0,0,-2.5845,-2.5845,-2.5847,-2.5847,-2.5847,-2.583,-2.583,-2.583,-2.5793,-2.5793,-2.5792,-2.5791,-2.5774,-2.5774,-2.5774,0,0,0,0,0,0,0,0,0,0,0,0,0,-2.5839,-2.5845,-2.5847,-2.5826,-2.5824,-2.5831,-2.583,-2.583,-2.5794,-2.5793,-2.5791,-2.579,-2.5773,-2.5774,-2.5774,-2.5799,0,0,-2.5775,-2.5775,0,0,0,0,0,0,0,0,-2.5839,-2.5839,-2.583,-2.5828,-2.5826,-2.5813,-2.5823,-2.582,-2.5794,-2.5805,-2.5791,-2.579,-2.5788,-2.5787,-2.5786,-2.5798,-2.5797,-2.5775,-2.5775,-2.5776,-2.5776,0,0,0,0,0,0,0,-2.584,-2.584,-2.584,-2.583,-2.5827,-2.5817,-2.5815,-2.5822,-2.5803,-2.5804,-2.5802,-2.58,-2.5786,-2.5786,-2.5785,-2.5797,-2.5775,-2.5776,-2.5776,-2.5776,-2.5826,-2.5827,0,0,0,0,0,0,-2.5843,-2.584,-2.5841,-2.584,-2.583,-2.5818,-2.5816,-2.5818,-2.5803,-2.5799,-2.5801,-2.5798,-2.5786,-2.5785,-2.5785,-2.5811,-2.5776,-2.5776,-2.5776,-2.5825,-2.5826,-2.5827,0,0,0,0,0,0,-2.5844,-2.5844,-2.5842,-2.5839,-2.5838,-2.582,-2.5822,-2.5818,-2.5818,-2.58,-2.5797,-2.5804,-2.5785,-2.5784,-2.5795,-2.581,-2.5776,-2.5776,-2.5824,-2.5825,-2.5827,-2.5865,0,0,0,0,0,0,-2.5844,-2.5844,-2.5854,-2.584,-2.5839,-2.5853,-2.5823,-2.5819,-2.5819,-2.5815,-2.5802,-2.5799,-2.5784,-2.5795,-2.5795,-2.581,-2.5777,-2.5822,-2.5824,-2.5826,-2.5862,-2.5868,-2.5872,0,0,0,0,0,-2.5844,-2.5866,-2.5855,-2.5855,-2.585,-2.5854,-2.5853,-2.5835,-2.582,-2.5829,-2.5817,-2.58,-2.5808,-2.5796,-2.5797,-2.5811,-2.5821,-2.5824,-2.5826,-2.586,-2.5866,-2.5872,0,0,0,0,0,0,-2.5882,-2.5864,-2.5851,-2.5869,-2.5863,-2.5848,-2.5859,-2.5843,-2.5842,-2.5838,-2.5816,-2.5813,-2.5827,-2.582,-2.5807,-2.5833,-2.5812,-2.5814,-2.5837,-2.5843,-2.5848,-2.5849,-2.5777,0,0,0,0,0,-2.5893,-2.5898,-2.5881,-2.5899,-2.5896,-2.5878,-2.5879,-2.5866,-2.5859,-2.5856,-2.5845,-2.5839,-2.584,-2.5841,-2.5842,-2.5861,-2.5857,-2.5871,-2.5876,-2.588,-2.5883,-2.589,-2.5896,-2.5836,-2.5836,-2.5836,0,0,-2.5915,-2.5905,-2.591,-2.5906,-2.59,-2.5905,-2.5876,-2.5883,-2.5886,-2.5857,-2.5866,-2.5858,-2.585,-2.5864,-2.587,-2.5859,-2.5898,-2.5883,-2.5887,-2.5887,-2.5894,-2.5899,-2.5904,-2.5837,-2.5837,-2.5837,0,0,-2.5957,-2.5951,-2.5964,-2.5958,-2.5949,-2.5937,-2.594,-2.5926,-2.592,-2.5929,-2.5906,-2.5909,-2.5912,-2.5906,-2.5904,-2.5942,-2.5924,-2.5942,-2.5968,-2.5976,-2.5981,-2.5985,-2.5997,-2.6002,-2.5945,-2.5945,-2.5945,0,-2.5986,-2.5992,-2.5973,-2.598,-2.5978,-2.5952,-2.5964,-2.5959,-2.5951,-2.595,-2.5938,-2.5939,-2.5932,-2.5944,-2.5953,-2.5952,-2.5954,-2.5944,-2.5982,-2.5986,-2.5989,-2.6001,-2.6005,-2.5947,-2.5947,-2.5947,-2.5946,0,-2.6027,-2.6032,-2.6043,-2.6035,-2.6034,-2.6045,-2.6026,-2.6027,-2.6014,-2.6002,-2.6011,-2.6,-2.5997,-2.5999,-2.5986,-2.6009,-2.6002,-2.5986,-2.5964,-2.5998,-2.6008,-2.6012,-2.595,-2.5949,-2.5949,-2.5948,0,0,-2.6093,-2.6073,-2.6078,-2.6073,-2.606,-2.6063,-2.6071,-2.6068,-2.6069,-2.6064,-2.6069,-2.6071,-2.6056,-2.6053,-2.6039,-2.6046,-2.6075,-2.6029,-2.6028,-2.6037,-2.6097,-2.6108,-2.6114,-2.6063,-2.6064,-2.6065,-2.6097,0,-2.6132,-2.6145,-2.6126,-2.6143,-2.6146,-2.612,-2.6127,-2.612,-2.6109,-2.6109,-2.6097,-2.6098,-2.6079,-2.6077,-2.6083,-2.607,-2.6086,-2.6067,-2.6067,-2.6067,-2.6069,-2.6119,-2.6132,-2.6163,-2.6101,-2.6102,-2.6103,0,-2.6179,-2.6175,-2.6192,-2.6176,-2.6177,-2.6183,-2.6178,-2.6179,-2.6169,-2.6161,-2.6157,-2.6139,-2.6145,-2.6124,-2.6131,-2.6118,-2.6117,-2.611,-2.6111,-2.611,-2.6086,-2.6118,-2.6173,-2.6177,-2.6109,-2.6108,-2.6108,0,-2.6224,-2.6223,-2.6232,-2.6229,-2.6212,-2.6217,-2.621,-2.6199,-2.6197,-2.6192,-2.6191,-2.6187,-2.6184,-2.6181,-2.6162,-2.6149,-2.6171,-2.6148,-2.6163,-2.6163,-2.6168,-2.6168,-2.6222,-2.6169,-2.6169,-2.6169,-2.6169,0,-2.6268,-2.6279,-2.6252,-2.6258,-2.6269,-2.6247,-2.6258,-2.6249,-2.6239,-2.6242,-2.6219,-2.6222,-2.6198,-2.6198,-2.6184,-2.619,-2.619,-2.6182,-2.6178,-2.6183,-2.6184,-2.6182,-2.6179,-2.617,-2.617,-2.617,-2.6169,0,-2.632,-2.6303,-2.6311,-2.6294,-2.6289,-2.6298,-2.6283,-2.6287,-2.6274,-2.6277,-2.6277,-2.6257,-2.6255,-2.6237,-2.6231,-2.6221,-2.6233,-2.6226,-2.6237,-2.6234,-2.6248,-2.6247,-2.6302,-2.6308,-2.6252,-2.6253,-2.6253,0,-2.6349,-2.6357,-2.634,-2.634,-2.6334,-2.6334,-2.6332,-2.6311,-2.6309,-2.6298,-2.6303,-2.63,-2.6296,-2.6294,-2.6279,-2.6274,-2.6265,-2.6285,-2.6265,-2.6269,-2.6264,-2.6263,-2.6263,-2.6289,-2.629,-2.6291,-2.6291,0,-2.6402,-2.6393,-2.6391,-2.6385,-2.6383,-2.6378,-2.6372,-2.6373,-2.6349,-2.6348,-2.6346,-2.6343,-2.6337,-2.6334,-2.6326,-2.6318,-2.63,-2.6298,-2.63,-2.6306,-2.6311,-2.6307,-2.6247,-2.6296,-2.6296,-2.6295,-2.6295,-2.6295,-2.6442,-2.6447,-2.6435,-2.6433,-2.6426,-2.642,-2.6422,-2.6409,-2.6407,-2.6401,-2.6388,-2.6387,-2.6376,-2.6363,-2.6357,-2.6355,-2.6345,-2.6349,-2.635,-2.6351,-2.6354,-2.6312,-2.6354,-2.6354,-2.6354,-2.6353,-2.6353,0,-2.6493,-2.6483,-2.6482,-2.6473,-2.6471,-2.6454,-2.6446,-2.6445,-2.6445,-2.6436,-2.6432,-2.6429,-2.6424,-2.6408,-2.6402,-2.6404,-2.6396,-2.6403,-2.6402,-2.64,-2.6364,-2.6362,-2.641,-2.641,-2.641,-2.641,-2.641,-2.641,-2.6519,-2.6525,-2.6514,-2.6516,-2.6507,-2.6506,-2.6502,-2.6496,-2.6488,-2.6486,-2.6482,-2.6471,-2.6459,-2.6451,-2.6446,-2.6442,-2.644,-2.645,-2.6442,-2.6409,-2.6403,-2.6398,-2.6395,-2.645,-2.645,-2.6478,-2.6478,-2.6479]}]]